COSMOS 2425 (GLONASS) 1 29670U 06062A 25172.28869971 .00000110 00000-0 00000-0 0 9997 2 29670 64.6907 206.2945 0022639 350.1555 74.3729 2.13116202143897 COSMOS 2426 (GLONASS) 1 29671U 06062B 25172.60075352 .00000111 00000-0 00000-0 0 9997 2 29671 64.6978 206.5191 0021678 181.1681 259.7179 2.12963418143870 COSMOS 2433 (GLONASS) 1 32275U 07052A 25173.46393599 -.00000063 00000-0 00000-0 0 9999 2 32275 65.7743 328.0173 0002316 198.3511 161.6337 2.13104029137399 COSMOS 2432 (GLONASS) 1 32276U 07052B 25174.71242214 -.00000070 00000-0 00000+0 0 9993 2 32276 65.7892 328.0963 0007866 331.1089 211.7465 2.13103077137452 COSMOS 2434 (GLONASS) 1 32393U 07065A 25173.19799645 .00000113 00000-0 00000-0 0 9991 2 32393 64.3160 204.0600 0000640 328.2860 79.0406 2.13101323136106 COSMOS 2436 (GLONASS) 1 32395U 07065C 25174.42844196 .00000106 00000-0 00000-0 0 9994 2 32395 64.3246 204.0868 0016635 353.1802 51.9401 2.13100175136088 COSMOS 2456 (GLONASS) 1 36111U 09070A 25172.70758016 -.00000040 00000-0 00000-0 0 9994 2 36111 64.7994 83.2895 0004536 327.4113 219.6333 2.13103648120746 COSMOS 2457 (GLONASS) 1 36112U 09070B 25172.47732707 -.00000039 00000-0 00000-0 0 9996 2 36112 64.7844 83.1484 0002929 138.0478 3.1031 2.13101149120743 COSMOS 2458 (GLONASS) 1 36113U 09070C 25172.12928865 -.00000036 00000-0 00000-0 0 9998 2 36113 64.7894 83.2065 0005168 326.8246 162.8446 2.13082863120769 COSMOS 2459 (GLONASS) 1 36400U 10007A 25173.33830708 -.00000063 00000-0 00000-0 0 9991 2 36400 65.6434 326.7281 0024999 346.6107 196.3562 2.13116710119153 COSMOS 2461 (GLONASS) 1 36401U 10007B 25174.62598929 -.00000070 00000-0 00000+0 0 9998 2 36401 65.6377 326.6455 0020012 2.2642 32.9298 2.13106699119171 COSMOS 2460 (GLONASS) 1 36402U 10007C 25171.12128686 -.00000046 00000-0 00000-0 0 9994 2 36402 65.6247 326.6956 0001831 105.5227 72.1887 2.13106149119011 COSMOS 2464 (GLONASS) 1 37139U 10041C 25173.42001177 .00000113 00000-0 00000-0 0 9994 2 37139 63.9155 202.5825 0032952 9.0924 58.3153 2.13098870115227 COSMOS 2471 (GLONASS) 1 37372U 11009A 25174.79271713 -.00000071 00000-0 00000+0 0 9997 2 37372 65.6103 326.5751 0008559 329.2502 356.2733 2.12911342111449 COSMOS 2474 (GLONASS) 1 37829U 11055A 25173.82405762 -.00000041 00000-0 00000+0 0 9998 2 37829 65.0852 85.0257 0010423 247.9744 298.2171 2.13101202106808 COSMOS 2476 (GLONASS) 1 37867U 11064A 25173.28708726 -.00000040 00000-0 00000-0 0 9996 2 37867 65.0650 85.0408 0022419 238.6558 302.7723 2.13101470106094 COSMOS 2477 (GLONASS) 1 37868U 11064B 25173.51988118 -.00000041 00000-0 00000-0 0 9999 2 37868 65.0720 85.1089 0019554 239.9321 300.1046 2.13102996106091 COSMOS 2475 (GLONASS) 1 37869U 11064C 25170.27553400 -.00000016 00000-0 00000-0 0 9994 2 37869 65.0775 85.2370 0025110 254.2462 273.5674 2.13101835106032 COSMOS 2485 (GLONASS) 1 39155U 13019A 25172.05096140 -.00000033 00000-0 00000-0 0 9996 2 39155 65.2185 85.7428 0022824 234.4594 125.3403 2.13104539 94587 COSMOS 2492 (GLONASS) 1 39620U 14012A 25173.41609423 -.00000064 00000-0 00000-0 0 9996 2 39620 65.5027 326.1414 0010699 324.8014 35.1197 2.13103118 87578 COSMOS 2500 (GLONASS) 1 40001U 14032A 25174.05980652 -.00000068 00000-0 00000-0 0 9994 2 40001 65.4385 325.8955 0007109 186.4278 173.5528 2.13105804 85804 COSMOS 2501 (GLONASS) 1 40315U 14075A 25174.78657835 .00000101 00000-0 00000+0 0 9999 2 40315 63.6159 202.7802 0021807 211.7460 148.1950 2.13101363 82216 COSMOS 2514 (GLONASS) 1 41330U 16008A 25174.77021619 -.00000071 00000-0 00000+0 0 9996 2 41330 65.2298 325.2866 0010777 199.5772 160.3690 2.13102472 72982 COSMOS 2516 (GLONASS) 1 41554U 16032A 25172.99053180 .00000113 00000-0 00000-0 0 9998 2 41554 63.8429 203.4281 0017172 213.0709 146.8967 2.13106526 70557 COSMOS 2522 (GLONASS) 1 42939U 17055A 25174.60911154 .00000104 00000-0 00000+0 0 9995 2 42939 64.0775 204.0908 0010562 240.7633 119.2063 2.13101832 60335